Air Resources Laboratory banner image
Air Resources Laboratory web site National Oceanic and Atmospheric Administration (NOAA)

ga zone


SCZ015-016-018-020>022-025>031-035>038-041-GAZ040-063>065-077-151000-

Tabular State Forecast for South Carolina
National Weather Service Columbia SC
502 PM EST Thu Dec 14 2017

ROWS INCLUDE...
   Daily predominant daytime weather 6AM-6PM
   Forecast temperatures...early morning low/daytime high
         Probability of precipitation nighttime 6PM-6AM/daytime 6AM-6PM
          - indicates temperatures below zero
         MM indicates missing data


   FCST     FCST     FCST     FCST     FCST     FCST     FCST
   Fri      Sat      Sun      Mon      Tue      Wed      Thu
   Dec 15   Dec 16   Dec 17   Dec 18   Dec 19   Dec 20   Dec 21


...Central SC, Including the Midlands...
   Aiken, SC
   PTCLDY   SUNNY    PTCLDY   SHWRS    PTCLDY   PTCLDY   SUNNY
   38/57    31/55    33/61    49/66    52/66    44/59    38/59
    00/00    00/00    00/10    50/60    60/40    30/20    10/10

   Bamberg, SC
   PTCLDY   SUNNY    PTCLDY   SHWRS    PTCLDY   PTCLDY   SUNNY
   39/61    32/58    33/63    50/67    52/67    44/61    38/61
    00/00    00/00    00/10    40/60    60/40    30/20    10/10

   Barnwell, SC
   PTCLDY   SUNNY    PTCLDY   SHWRS    PTCLDY   PTCLDY   SUNNY
   38/60    32/57    34/63    50/68    53/68    45/61    39/61
    00/00    00/00    00/10    50/60    60/40    30/20    10/10

   Bishopville, SC
   PTCLDY   SUNNY    PTCLDY   SHWRS    PTCLDY   SUNNY    SUNNY
   36/57    30/55    31/60    46/65    49/66    43/59    36/59
    00/00    00/00    00/10    40/50    50/30    30/20    10/10

   Camden, SC
   PTCLDY   SUNNY    PTCLDY   SHWRS    PTCLDY   SUNNY    SUNNY
   36/57    30/55    31/60    46/64    49/66    42/59    35/59
    00/00    00/00    00/10    50/50    50/30    30/20    10/10

   Chesterfield, SC
   PTCLDY   SUNNY    PTCLDY   SHWRS    PTCLDY   SUNNY    SUNNY
   35/55    30/54    30/59    45/64    48/66    41/58    35/58
    00/00    00/00    00/10    40/50    50/30    30/20    10/10

   Columbia, SC
   PTCLDY   SUNNY    PTCLDY   SHWRS    PTCLDY   PTCLDY   SUNNY
   39/59    32/56    34/61    49/66    52/67    45/60    39/60
    00/00    00/00    00/10    50/60    60/40    30/20    10/10

   Edgefield, SC
   PTCLDY   SUNNY    PTCLDY   SHWRS    PTCLDY   PTCLDY   SUNNY
   38/56    30/54    33/60    48/64    51/65    43/60    38/59
    00/00    00/00    00/10    50/60    60/40    30/20    10/10

   Lexington, SC
   PTCLDY   SUNNY    PTCLDY   SHWRS    PTCLDY   PTCLDY   SUNNY
   37/57    32/56    34/60    49/65    52/65    44/60    39/60
    00/00    00/00    00/10    50/60    60/40    30/20    10/10

   Lancaster, SC
   PTCLDY   SUNNY    PTCLDY   SHWRS    PTCLDY   SUNNY    SUNNY
   33/53    29/53    30/57    44/62    47/65    40/58    34/57
    00/00    00/00    00/10    40/50    50/30    30/20    10/10

   Manning, SC
   PTCLDY   SUNNY    PTCLDY   SHWRS    PTCLDY   PTCLDY   SUNNY
   38/60    32/57    31/61    47/66    50/67    43/60    36/60
    00/00    00/00    00/10    40/60    60/40    30/20    10/10

   McCormick, SC
   PTCLDY   SUNNY    PTCLDY   SHWRS    PTCLDY   PTCLDY   SUNNY
   36/56    30/55    33/60    48/65    50/66    42/60    37/59
    00/00    00/00    00/10    60/60    60/30    30/20    10/10

   Newberry, SC
   PTCLDY   SUNNY    PTCLDY   SHWRS    PTCLDY   PTCLDY   SUNNY
   35/55    29/54    32/58    46/63    49/64    41/59    36/57
    00/00    00/00    00/10    50/50    50/30    30/20    10/10

   Orangeburg, SC
   PTCLDY   SUNNY    PTCLDY   SHWRS    PTCLDY   PTCLDY   SUNNY
   39/60    32/57    33/62    49/67    52/67    44/60    38/61
    00/00    00/00    00/10    40/60    60/40    30/20    10/10

   Saluda, SC
   PTCLDY   SUNNY    PTCLDY   SHWRS    PTCLDY   PTCLDY   SUNNY
   36/56    29/55    31/58    46/63    48/64    41/59    36/59
    00/00    00/00    00/10    50/60    60/40    30/20    10/10

   St. Matthews, SC
   PTCLDY   SUNNY    PTCLDY   SHWRS    PTCLDY   PTCLDY   SUNNY
   38/58    32/57    33/62    48/67    52/67    44/60    38/61
    00/00    00/00    00/10    50/60    60/40    30/20    10/10

   Sumter, SC
   PTCLDY   SUNNY    PTCLDY   SHWRS    PTCLDY   PTCLDY   SUNNY
   37/59    31/56    32/61    47/66    50/67    43/60    37/60
    00/00    00/00    00/10    50/60    60/40    30/20    10/10

   Winssboro, SC
   PTCLDY   SUNNY    PTCLDY   SHWRS    PTCLDY   SUNNY    SUNNY
   35/55    31/54    33/58    47/63    49/65    42/58    37/58
    00/00    00/00    00/10    50/50    50/30    30/20    10/10


...Northeast SC, Including the Pee Dee and the North Coast...
   Bennettsville, SC
   PTCLDY   SUNNY    PTCLDY   SHWRS    PTCLDY   SUNNY    SUNNY
   34/56    30/55    31/60    46/65    49/67    42/58    35/58
    00/00    00/00    00/10    40/50    50/30    30/20    10/10

   Conway, SC
   PTCLDY   SUNNY    PTCLDY   SHWRS    PTCLDY   PTCLDY   SUNNY
   37/61    33/55    35/62    49/66    51/67    45/59    38/58
    00/00    00/00    00/10    40/60    60/40    30/20    10/10

   Darlington, SC
   PTCLDY   SUNNY    PTCLDY   SHWRS    PTCLDY   SUNNY    SUNNY
   37/57    31/55    31/60    46/65    49/67    43/59    36/59
    00/00    00/00    00/10    40/60    60/30    30/20    10/10

   Dillon, SC
   PTCLDY   SUNNY    PTCLDY   SHWRS    PTCLDY   SUNNY    SUNNY
   35/58    31/53    31/61    46/65    49/67    43/60    35/59
    00/00    00/00    00/10    40/50    50/30    30/20    10/10

   Florence, SC
   PTCLDY   SUNNY    PTCLDY   SHWRS    PTCLDY   SUNNY    SUNNY
   37/58    31/54    31/61    47/66    50/67    43/60    36/60
    00/00    00/00    00/10    40/60    60/40    30/20    10/10

   Georgetown, SC
   PTCLDY   SUNNY    PTCLDY   SHWRS    PTCLDY   PTCLDY   SUNNY
   40/61    35/57    36/62    49/66    51/66    45/60    40/60
    00/00    10/00    00/10    40/60    60/40    30/20    10/10

   Kingstree, SC
   PTCLDY   SUNNY    PTCLDY   SHWRS    PTCLDY   PTCLDY   SUNNY
   38/60    32/56    32/61    47/66    50/66    44/60    37/60
    00/00    00/00    00/10    40/60    60/40    30/20    10/10

   Marion, SC
   PTCLDY   SUNNY    PTCLDY   SHWRS    PTCLDY   SUNNY    SUNNY
   36/58    32/54    32/61    47/66    51/67    44/60    37/59
    00/00    00/00    00/10    40/60    60/40    30/20    10/10

   Murells Inlet, SC
   PTCLDY   SUNNY    PTCLDY   SHWRS    PTCLDY   PTCLDY   SUNNY
   40/61    37/55    39/62    51/65    53/65    47/58    42/58
    00/10    00/00    00/10    40/60    60/30    30/20    10/10

   Myrtle Beach, SC
   PTCLDY   SUNNY    PTCLDY   SHWRS    PTCLDY   PTCLDY   SUNNY
   41/60    36/54    39/61    51/65    53/65    47/58    42/58
    00/00    00/00    00/10    40/60    60/30    30/20    10/10


...Northwest SC, Including the Upstate...
   Abbeville, SC
   PTCLDY   SUNNY    MOCLDY   SHWRS    PTCLDY   PTCLDY   SUNNY
   35/54    29/53    32/59    46/63    48/65    41/59    36/58
    00/00    00/00    00/10    50/50    50/30    30/20    10/10

   Anderson, SC
   PTCLDY   SUNNY    MOCLDY   SHWRS    PTCLDY   SUNNY    SUNNY
   34/52    29/51    34/56    47/62    48/64    41/58    38/56
    00/00    00/00    00/20    50/50    50/30    30/20    10/10

   Chester, SC
   PTCLDY   SUNNY    PTCLDY   SHWRS    PTCLDY   SUNNY    SUNNY
   33/53    28/52    31/58    45/63    47/65    41/58    35/57
    00/00    00/00    00/10    50/50    50/30    30/20    10/10

   Clemson, SC
   PTCLDY   SUNNY    MOCLDY   SHWRS    PTCLDY   SUNNY    SUNNY
   36/52    30/53    35/57    48/63    48/65    41/59    38/57
    00/00    00/00    00/20    60/60    40/30    30/10    10/10

   Gaffney, SC
   PTCLDY   SUNNY    MOCLDY   MOCLDY   PTCLDY   SUNNY    SUNNY
   31/50    28/51    31/55    43/61    46/63    39/56    35/55
    00/00    00/00    00/10    40/40    40/30    30/10    10/10

   Greenville, SC
   PTCLDY   SUNNY    MOCLDY   SHWRS    PTCLDY   SUNNY    SUNNY
   35/51    29/52    33/56    46/63    47/64    40/58    36/56
    00/00    00/00    00/20    50/50    40/30    30/10    10/10

   Greenwood, SC
   PTCLDY   SUNNY    PTCLDY   SHWRS    PTCLDY   SUNNY    SUNNY
   35/54    28/53    31/58    45/63    48/64    41/59    36/58
    00/00    00/00    00/10    50/50    50/30    30/20    10/10

   Laurens, SC
   PTCLDY   SUNNY    MOCLDY   SHWRS    PTCLDY   PTCLDY   SUNNY
   34/53    28/53    32/57    46/62    47/64    40/58    36/57
    00/00    00/00    00/10    50/50    50/30    30/20    10/10

   Rock Hill, SC
   PTCLDY   SUNNY    PTCLDY   SHWRS    PTCLDY   SUNNY    SUNNY
   32/51    29/51    31/57    45/62    47/64    41/57    36/57
    00/00    00/00    00/10    40/50    50/30    30/20    10/10

   Seneca, SC
   PTCLDY   SUNNY    MOCLDY   SHWRS    PTCLDY   SUNNY    SUNNY
   36/52    30/53    34/57    47/63    48/64    41/59    38/56
    00/00    00/00    00/20    50/50    40/30    30/10    10/10

   Spartanburg,SC
   PTCLDY   SUNNY    MOCLDY   MOCLDY   PTCLDY   SUNNY    SUNNY
   33/51    30/51    33/56    46/62    47/64    41/57    37/56
    00/00    00/00    00/10    40/40    40/30    30/10    10/10

   Union, SC
   PTCLDY   SUNNY    PTCLDY   SHWRS    PTCLDY   SUNNY    SUNNY
   33/53    29/52    31/57    45/62    47/65    40/58    35/57
    00/00    00/00    00/10    50/50    40/30    30/20    10/10



GAZ065-150900-
Richmond-
Including the city of Hephzibah
503 PM EST Thu Dec 14 2017

.TONIGHT...Partly cloudy this evening, then becoming mostly
cloudy. Lows in the upper 30s. West winds around 5 mph.
.FRIDAY...Partly sunny in the morning, then becoming mostly
cloudy. Highs in the upper 50s. West winds 5 to 10 mph.
.FRIDAY NIGHT...Mostly cloudy in the evening, then clearing. Lows
in the lower 30s. Northwest winds 5 to 10 mph.
.SATURDAY...Sunny. Highs in the upper 50s. Northwest winds around
5 mph, becoming southwest around 5 mph in the afternoon.
.SATURDAY NIGHT...Mostly clear in the evening, then becoming
partly cloudy. Lows in the mid 30s. Southwest winds around 5 mph.
.SUNDAY...Mostly sunny in the morning, then becoming mostly
cloudy. Highs in the lower 60s.
.SUNDAY NIGHT...Cloudy with a 50 percent chance of showers. Not
as cool with lows around 50.
.MONDAY...Showers likely. Highs in the upper 60s. Chance of rain
60 percent.
.MONDAY NIGHT...Mostly cloudy with a 40 percent chance of
showers. Lows in the lower 50s.
.TUESDAY...Partly sunny with a 40 percent chance of showers.
Highs in the upper 60s.
.TUESDAY NIGHT...Mostly cloudy in the evening, then becoming
partly cloudy. Lows in the mid 40s.
.WEDNESDAY...Mostly sunny. Highs in the lower 60s.
.WEDNESDAY NIGHT...Mostly clear. Lows in the upper 30s.
.THURSDAY...Sunny. Highs in the lower 60s.


GAZ077-150900-
Burke-
Including the city of Waynesboro
503 PM EST Thu Dec 14 2017

.TONIGHT...Partly cloudy this evening, then becoming mostly
cloudy. Lows in the upper 30s. West winds around 5 mph.
.FRIDAY...Partly sunny in the morning, then becoming mostly
cloudy. Highs in the upper 50s. West winds 5 to 10 mph.
.FRIDAY NIGHT...Mostly cloudy in the evening, then clearing. Lows
in the lower 30s. Northwest winds 5 to 10 mph.
.SATURDAY...Sunny. Highs in the upper 50s. West winds around
5 mph.
.SATURDAY NIGHT...Mostly clear in the evening, then becoming
partly cloudy. Lows in the lower 30s. Southwest winds around
5 mph.
.SUNDAY...Mostly sunny in the morning, then becoming mostly
cloudy. Highs in the mid 60s.
.SUNDAY NIGHT...Cloudy with a 50 percent chance of showers. Not
as cool with lows in the lower 50s.
.MONDAY...Showers likely. Highs in the upper 60s. Chance of rain
60 percent.
.MONDAY NIGHT...Mostly cloudy with a 50 percent chance of
showers. Lows in the lower 50s.
.TUESDAY...Partly sunny with a 40 percent chance of showers.
Highs in the upper 60s.
.TUESDAY NIGHT...Mostly cloudy in the evening, then becoming
partly cloudy. Lows in the mid 40s.
.WEDNESDAY...Mostly sunny. Highs in the lower 60s.
.WEDNESDAY NIGHT...Mostly clear. Lows in the upper 30s.
.THURSDAY...Mostly sunny. Highs in the lower 60s.


GAZ040-150900-
Lincoln-
Including the city of Lincolnton
503 PM EST Thu Dec 14 2017

.TONIGHT...Mostly clear this evening, then becoming mostly
cloudy. Lows in the upper 30s. West winds around 5 mph.
.FRIDAY...Partly sunny. Highs in the mid 50s. West winds 5 to
10 mph.
.FRIDAY NIGHT...Partly cloudy in the evening, then clearing. Lows
in the lower 30s. West winds 5 to 10 mph.
.SATURDAY...Sunny. Highs in the mid 50s. West winds around 5 mph.
.SATURDAY NIGHT...Mostly clear in the evening, then becoming
partly cloudy. Lows in the mid 30s. South winds around 5 mph.
.SUNDAY...Partly sunny in the morning, then becoming mostly
cloudy. Highs around 60.
.SUNDAY NIGHT...Showers likely. Not as cool with lows around 50.
Chance of rain 60 percent.
.MONDAY...Mostly cloudy with a 50 percent chance of showers.
Highs in the mid 60s.
.MONDAY NIGHT...Mostly cloudy with a 50 percent chance of
showers. Lows in the lower 50s.
.TUESDAY...Partly sunny with a 40 percent chance of showers.
Highs in the mid 60s.
.TUESDAY NIGHT...Mostly cloudy in the evening, then becoming
partly cloudy. Lows in the mid 40s.
.WEDNESDAY...Mostly sunny. Highs around 60.
.WEDNESDAY NIGHT...Mostly clear. Lows around 40.
.THURSDAY...Sunny. Highs around 60.


GAZ063-150900-
McDuffie-
Including the city of Thomson
503 PM EST Thu Dec 14 2017

.TONIGHT...Partly cloudy this evening, then becoming mostly
cloudy. Lows in the upper 30s. West winds around 5 mph.
.FRIDAY...Partly sunny. Highs in the upper 50s. West winds 5 to
10 mph.
.FRIDAY NIGHT...Partly cloudy in the evening, then clearing. Lows
in the lower 30s. West winds 5 to 10 mph.
.SATURDAY...Sunny. Highs in the mid 50s. West winds around 5 mph.
.SATURDAY NIGHT...Mostly clear in the evening, then becoming
partly cloudy. Lows in the mid 30s. South winds around 5 mph.
.SUNDAY...Partly sunny in the morning, then becoming mostly
cloudy. Highs in the lower 60s.
.SUNDAY NIGHT...Showers likely. Not as cool with lows around 50.
Chance of rain 60 percent.
.MONDAY...Showers likely. Highs in the mid 60s. Chance of rain
60 percent.
.MONDAY NIGHT...Mostly cloudy with a 50 percent chance of
showers. Lows in the lower 50s.
.TUESDAY...Partly sunny with a 40 percent chance of showers.
Highs in the mid 60s.
.TUESDAY NIGHT...Mostly cloudy in the evening, then becoming
partly cloudy. Lows in the mid 40s.
.WEDNESDAY...Mostly sunny. Highs around 60.
.WEDNESDAY NIGHT...Mostly clear. Lows in the upper 30s.
.THURSDAY...Sunny. Highs around 60.


GAZ064-150900-
Columbia-
Including the cities of Martinez and Evans
503 PM EST Thu Dec 14 2017

.TONIGHT...Partly cloudy this evening, then becoming mostly
cloudy. Lows in the upper 30s. West winds around 5 mph.
.FRIDAY...Partly sunny. Highs in the upper 50s. West winds 5 to
10 mph.
.FRIDAY NIGHT...Partly cloudy in the evening, then clearing. Lows
in the lower 30s. West winds 5 to 10 mph.
.SATURDAY...Sunny. Highs in the mid 50s. Northwest winds around
5 mph, becoming southwest around 5 mph in the afternoon.
.SATURDAY NIGHT...Mostly clear in the evening, then becoming
partly cloudy. Lows in the mid 30s. Southwest winds around 5 mph.
.SUNDAY...Partly sunny in the morning, then becoming mostly
cloudy. Highs in the lower 60s.
.SUNDAY NIGHT...Showers likely. Not as cool with lows around 50.
Chance of rain 60 percent.
.MONDAY...Showers likely. Highs in the upper 60s. Chance of rain
60 percent.
.MONDAY NIG

123
FPUS55 KVEF 142206 PZB
ZFPVEF
IGHT...Mostly clear. Lows 35 to 38. Northwest winds up to
10 mph.
.FRIDAY...Sunny. Highs 63 to 66. Winds generally light becoming
south up to 10 mph in the afternoon.
.FRIDAY NIGHT...Partly cloudy. Lows 36 to 39. Northwest winds up
to 10 mph.
.SATURDAY...Mostly sunny. Breezy. Highs around 60. North winds
15 to 25 mph with gusts to around 40 mph.
.SATURDAY NIGHT...Mostly clear. Lows 35 to 38. North winds 10 to
20 mph.
.SUNDAY AND SUNDAY NIGHT...Mostly clear. Breezy. Highs 60 to 63.
Lows around 40.
.MONDAY THROUGH TUESDAY...Mostly clear. Highs around 70. Lows
36 to 39.
.TUESDAY NIGHT THROUGH WEDNESDAY NIGHT...Partly cloudy. Lows
around 40. Highs 66 to 69.
.THURSDAY...Mostly sunny. Highs around 61.


GAZ044-118-TXZ119-213-NCZ071-DCZ001-MDZ014-506-PAZ021-071-NJZ106-
NYZ176-178-MAZ106-OHZ011-021-055-MIZ076-KYZ091-ILZ014-INZ047-
MNZ060-ONZ431-142300-

...Gateway Observations for Savannah International...

CITY           SKY/WX    TMP DP  RH WIND       PRES   REMARKS
Savannah Arpt  CLOUDY    60  36  40 SW6       29.96R
Atlanta        CLOUDY    54  36  50 SW6       29.93S
Charlotte      PTCLDY    55  26  32 SE5       29.88R
Dallas DFW     MOSUNNY   60  26  27 N18       30.04R
Houston Bush   CLOUDY    63  42  46 NW6       29.97R
Wash National  MOCLDY    37  17  44 N13       29.99R WCI  29
Wash Dulles    MOCLDY    34  17  50 NW12      29.98R WCI  25
Baltimore      MOCLDY    34  15  46 NW12      29.98R WCI  25
Philadelphia   PTCLDY    32  11  41 NW12      29.97R WCI  23
Newark         PTCLDY    28   9  44 W17       29.94R WCI  16
Laguardia      PTCLDY    30  11  45 NW16G25   29.93R WCI  19
J F K          PTCLDY    28  11  48 NW18      29.94R WCI  15
Boston         PTCLDY    27   4  37 W15G29    29.80R WCI  15
Pittsburg      MOCLDY    25  11  55 NW7       29.98R WCI  17
Akron          FLURRIES  24  14  65 W9        29.99R WCI  14
Cleveland      MOCLDY    23  14  68 W9        30.05R WCI  13
Cincinnati     MOCLDY    26  16  65 NW3       30.05R
Columbus       PTCLDY    25  15  65 CALM      30.04R
Detroit        PTCLDY    22   7  52 W6        30.05R WCI  14
Chicago O'Hare MOCLDY    24   9  52 SW5       30.05R WCI  18
Minneapolis    CLOUDY    23  18  81 W10       30.01F WCI  12
Indianapolis   MOCLDY    28  10  46 SE3       30.05R
Toronto Canada PTCLDY    18   7  62 W12       29.95R WCI   5


GAZ044-118-TXZ119-213-NCZ071-DCZ001-MDZ014-506-PAZ021-071-NJZ106-
NYZ176-178-MAZ106-OHZ011-021-055-MIZ076-KYZ091-ILZ014-INZ047-
MNZ060-ONZ431-142300-

...Gateway Observations for Savannah International...

CITY           SKY/WX    TMP DP  RH WIND       PRES   REMARKS
Savannah Arpt  CLOUDY    60  36  40 SW6       29.96R
Atlanta        CLOUDY    54  36  50 SW6       29.93S
Charlotte      PTCLDY    55  26  32 SE5       29.88R
Dallas DFW     MOSUNNY   60  26  27 N18       30.04R
Houston Bush   CLOUDY    63  42  46 NW6       29.97R
Wash National  MOCLDY    37  17  44 N13       29.99R WCI  29
Wash Dulles    MOCLDY    34  17  50 NW12      29.98R WCI  25
Baltimore      MOCLDY    34  15  46 NW12      29.98R WCI  25
Philadelphia   PTCLDY    32  11  41 NW12      29.97R WCI  23
Newark         PTCLDY    28   9  44 W17       29.94R WCI  16
Laguardia      PTCLDY    30  11  45 NW16G25   29.93R WCI  19
J F K          PTCLDY    28  11  48 NW18      29.94R WCI  15
Boston         PTCLDY    27   4  37 W15G29    29.80R WCI  15
Pittsburg      MOCLDY    25  11  55 NW7       29.98R WCI  17
Akron          FLURRIES  24  14  65 W9        29.99R WCI  14
Cleveland      MOCLDY    23  14  68 W9        30.05R WCI  13
Cincinnati     MOCLDY    26  16  65 NW3       30.05R
Columbus       PTCLDY    24  15  69 SW3       30.05R
Detroit        PTCLDY    22   7  52 W6        30.05R WCI  14
Chicago O'Hare MOCLDY    24   9  52 SW5       30.05R WCI  18
Minneapolis    CLOUDY    23  18  81 W10       30.01F WCI  12
Indianapolis   MOCLDY    28  10  46 SE3       30.05R
Toronto Canada PTCLDY    18   7  62 W12       29.95R WCI   5